TimeMST,TemperatureF,Dew PointF,Humidity,Sea Level PressureIn,VisibilityMPH,Wind Direction,Wind SpeedMPH,Gust SpeedMPH,PrecipitationIn,Events,Conditions,WindDirDegrees,DateUTC
12:53 AM,23.0,19.9,88,30.21,10.0,South,4.6,-,N/A,,Scattered Clouds,170,2012-11-14 07:53:00
1:53 AM,21.9,18.0,85,30.20,10.0,Calm,Calm,-,N/A,,Clear,0,2012-11-14 08:53:00
2:53 AM,21.9,17.1,82,30.20,10.0,SSW,5.8,-,N/A,,Clear,210,2012-11-14 09:53:00
3:53 AM,23.0,19.0,85,30.18,10.0,Calm,Calm,-,N/A,,Mostly Cloudy,0,2012-11-14 10:53:00
4:53 AM,23.0,19.0,85,30.17,10.0,Calm,Calm,-,N/A,,Mostly Cloudy,0,2012-11-14 11:53:00
5:53 AM,24.1,21.0,88,30.19,10.0,North,3.5,-,N/A,,Overcast,10,2012-11-14 12:53:00
6:53 AM,21.0,19.0,92,30.22,10.0,SSW,3.5,-,N/A,,Scattered Clouds,210,2012-11-14 13:53:00
7:53 AM,23.0,21.0,92,30.21,10.0,WSW,3.5,-,N/A,,Mostly Cloudy,240,2012-11-14 14:53:00
8:53 AM,30.0,24.1,79,30.19,10.0,Calm,Calm,-,N/A,,Clear,0,2012-11-14 15:53:00
9:53 AM,32.0,27.0,82,30.18,10.0,Calm,Calm,-,N/A,,Overcast,0,2012-11-14 16:53:00
10:53 AM,36.0,28.0,73,30.18,10.0,Calm,Calm,-,N/A,,Partly Cloudy,0,2012-11-14 17:53:00
11:53 AM,35.1,27.0,72,30.18,10.0,Calm,Calm,-,N/A,,Partly Cloudy,0,2012-11-14 18:53:00
12:53 PM,39.0,27.0,62,30.15,10.0,Calm,Calm,-,N/A,,Clear,0,2012-11-14 19:53:00
1:53 PM,39.0,28.0,65,30.16,10.0,Calm,Calm,-,N/A,,Overcast,0,2012-11-14 20:53:00
2:53 PM,37.9,32.0,79,30.18,10.0,SSW,6.9,-,N/A,,Mostly Cloudy,210,2012-11-14 21:53:00
3:53 PM,37.9,30.9,76,30.18,10.0,Calm,Calm,-,N/A,,Mostly Cloudy,0,2012-11-14 22:53:00
4:53 PM,39.9,28.9,65,30.20,10.0,WNW,5.8,-,N/A,,Overcast,290,2012-11-14 23:53:00
5:53 PM,37.0,28.9,73,30.24,10.0,West,6.9,-,N/A,,Mostly Cloudy,260,2012-11-15 00:53:00
6:53 PM,37.0,30.0,76,30.26,10.0,Calm,Calm,-,N/A,,Overcast,0,2012-11-15 01:53:00
7:53 PM,34.0,28.0,79,30.28,10.0,NNE,3.5,-,N/A,,Scattered Clouds,30,2012-11-15 02:53:00
8:53 PM,33.1,27.0,78,30.30,10.0,Calm,Calm,-,N/A,,Mostly Cloudy,0,2012-11-15 03:53:00
9:53 PM,37.0,28.0,70,30.30,10.0,NNW,3.5,-,N/A,,Overcast,330,2012-11-15 04:53:00
10:53 PM,30.9,27.0,85,30.32,10.0,Calm,Calm,-,N/A,,Overcast,0,2012-11-15 05:53:00
11:53 PM,34.0,28.0,79,30.33,10.0,NW,5.8,-,N/A,,Overcast,320,2012-11-15 06:53:00